Regional Weather Roundup
Issued by NWS Northern Indiana

Home | Current Version | Previous Version | Graphics & Text | Print | Product List | Glossary On
Versions: 1 2 3 4 5 6 7 8 9 10 11 12 13 14 15 16 17 18 19 20 21 22 23 24 25 26 27 28 29 30 31 32 33 34 35 36 37 38 39 40 41 42 43 44 45 46 47 48 49 50
000
ASUS43 KIWX 221510
RWRIWX

KIWX WEATHER ROUNDUP
NATIONAL WEATHER SERVICE NORTHERN INDIANA
1100 AM EDT FRI MAY 22 2015

NOTE: "FAIR" INDICATES FEW OR NO CLOUDS BELOW 12,000 FEET WITH NO
SIGNIFICANT WEATHER AND/OR OBSTRUCTIONS TO VISIBILITY.

* THESE STATIONS ARE NOT UNDER NWS QUALITY CONTROL. THEY ALSO MAY NOT
  REPORT WEATHER SUCH AS PRECIPITATION OR FOG.

INZ001>027-221600-
NORTHERN INDIANA

CITY           SKY/WX    TMP DP  RH WIND       PRES   REMARKS
GARY*          SUNNY     55  46  71 N7        30.21R
VALPARAISO     SUNNY     65  46  50 NE6       30.19R
MICHIGAN CITY* SUNNY     63  37  39 CALM      30.19S
LAPORTE*       SUNNY     65  44  45 NE5       30.19S
KNOX*          SUNNY     63  45  51 NE3       30.18R
SOUTH BEND     SUNNY     63  31  30 E8        30.19S
ELKHART*       SUNNY     61  32  33 E8        30.20R
GOSHEN         SUNNY     62  37  39 NE12      30.19R
MONTICELLO*    SUNNY     63  48  56 N6        30.18R
LOGANSPORT*    SUNNY     63  45  51 N3        30.19R
ROCHESTER*     SUNNY     64  46  52 NE3       30.18S
WARSAW*        SUNNY     61  39  44 E6        30.19R
ANGOLA*        SUNNY     59  48  67 VRB6      30.18S
FORT WAYNE     SUNNY     63  45  51 NE9       30.19R
HUNTINGTON*    SUNNY     62  47  58 NE6       30.18R
PERU/GRISSOM   SUNNY     62  48  60 VRB5      30.17R
MARION*        SUNNY     60  46  57 N3        30.19R

$$
INZ028>050-221600-
CENTRAL INDIANA

CITY           SKY/WX    TMP DP  RH WIND       PRES   REMARKS
LAFAYETTE      SUNNY     61  48  62 W3        30.19R
KOKOMO*        SUNNY     63  48  59 N6        30.19R
MUNCIE*        SUNNY     62  47  57 W6        30.19R
INDIANAPOLIS   SUNNY     64  47  53 W9        30.19R

$$
MIZ043>046-050>051-056>058-064>065-071>073-077>080-221600-
SOUTHWEST LOWER MICHIGAN

CITY           SKY/WX    TMP DP  RH WIND       PRES   REMARKS
BATTLE CREEK   SUNNY     60  25  26 NE14      30.20R
BENTON HARBOR  SUNNY     60  35  39 E7        30.20R
COLDWATER*     SUNNY     59  29  31 N8        30.19R
HILLSDALE*     SUNNY     59  28  29 NW9       30.19R
HOLLAND        SUNNY     60  28  29 VRB6      30.21S
GRAND RAPIDS   SUNNY     60  26  27 NE7       30.20R
KALAMAZOO      SUNNY     61  25  25 N7        30.20R
STURGIS*       SUNNY     59  30  33 NE7       30.19R
THREE RIVERS*  FAIR      59  30  33 E5        30.20R

$$
OHZ001>008-015>018-024>025-221600-
NORTHWEST OHIO

CITY           SKY/WX    TMP DP  RH WIND       PRES   REMARKS
WAUSEON*       FAIR      61  25  25 MISG      30.18R
DEFIANCE       SUNNY     63  31  30 NE7       30.18R
FINDLAY        SUNNY     63  35  35 N6        30.17R
TOLEDO EXPRESS SUNNY     61  26  26 N12       30.17R
TOLEDO METCALF SUNNY     62  24  23 N9        30.18R
LIMA           SUNNY     60  44  55 VRB5      30.18R

$$
AND FOR LAKE MICHIGAN COASTAL AND OPEN LAKE BUOY OBSERVATIONS

STATION/POSITION TEMP    WIND        PRES    VSBY  WAVE
                 AIR SEA DIR/SP/G                  HT/PER
                 (F)     (DEG/KT/KT) (MB)    (MI)  (FT/S)
CALUMET HARBOR    51     330/ 10/ 12   N/A
MICHIGAN CITY     52     350/ 13/ 14   N/A
BURNS HARBOR      50     360/  7/  9 1023.0R
SAINT JOSEPH      61     330/  3/  8 1022.7R
SOUTH LAKE BUOY   41 38  330/  6/  8   N/A           1
4 MI NW BRIDGMAN  53 53   20/  8/ 10   N/A           1
MICHIGAN CITY     49 51   30/ 12/ 14   N/A           1/ 3

$$
&&


USA.gov is the U.S. government's official web portal to all federal, state and local government web resources and services.